Location: Brno
(49.2000°N, 16.6330°E)
Time: 10:34:50
(UTC+02:00)

Vanguard 3 - Pass Details

Date: 28 July 2021
Orbit: 510 x 3260 km, 33.3° (Epoch: 18 September)

Event Time Altitude Azimuth Distance (km) Brightness Sun altitude
Rises 22:50:04 0° 261° (W) 6,894 12.2 -16.2°
Reaches altitude 10° 22:54:45 10° 256° (WSW) 6,053 11.8 -16.6°
Maximum altitude 23:12:39 45° 193° (SSW) 3,896 10.2 -18.0°
Enters shadow 23:24:42 20° 135° (SE) 4,701 10.4 -18.8°
